Tracking 22438 objects as of 24-Feb-2021
HD Live streaming from Space Station
objects crossing your sky now

BREEZE-M DEB

Track BREEZE-M DEB now!
10-day predictions


NORAD ID: 38921
Int'l Code: 2012-044BE
Perigee: 248.4 km
Apogee: 1,945.9 km
Inclination: 50.2 °
Period: 107.0 minutes
Semi major axis: 7468 km
RCS: 0.258 m2 (medium)
Launch date: August 6, 2012
Source: Commonwealth of Independent States (former USSR) (CIS)
Launch site: TYURATAM MISSILE AND SPACE COMPLEX (TTMTR)

Note: This is SATELLITE DEBRIS
aabbcc
Your satellite tracking list
Your tracking list is empty




NASA's NSSDC Master Catalog

Two Line Element Set (TLE):
1 38921U 12044BE  21055.03860167  .00104273  70143-5  10145-2 0  9998
2 38921  50.1935 171.9427 1136509 224.2913 126.1392 13.45187601359824
Source of the keplerian elements: AFSPC